Wind_Speed
20 22 22 22 22 22 23 25 27 28 30 28 28 29 30 32 34 32 31 32 34 33 34 31 26 23 24 25 26 25 22 24
21 22 22 22 22 25 27 30 32 34 35 34 34 35 35 35 37 36 33 34 34 35 34 34 29 25 24 24 25 26 24 23
21 22 23 24 26 28 30 33 35 37 39 40 39 39 40 40 40 40 39 37 36 36 33 33 31 30 25 25 23 24 21 20
24 24 27 29 31 32 32 33 35 38 41 42 44 43 45 47 46 43 39 39 38 37 37 32 33 31 29 28 25 24 22 23
27 29 30 28 30 32 32 33 36 36 38 42 45 47 47 48 48 43 39 38 41 41 40 37 35 32 32 31 28 25 24 24
26 27 26 30 30 30 34 36 36 37 40 47 46 51 51 52 48 45 44 39 43 47 45 43 35 34 32 33 31 29 27 25
27 28 32 34 33 31 34 38 40 41 45 47 50 50 56 55 52 49 47 43 43 47 50 47 39 36 35 35 33 31 29 30
37 36 36 37 36 34 37 45 47 47 46 47 52 52 54 59 57 54 51 46 46 47 45 49 43 40 38 37 35 35 33 31
39 42 40 38 39 39 42 48 49 48 50 48 47 51 52 59 59 58 55 53 50 50 50 49 47 43 40 39 37 36 37 35
46 44 44 42 43 47 47 47 51 51 49 47 47 48 48 49 49 57 60 56 53 53 55 56 51 48 43 41 40 39 40 38
54 52 51 46 46 46 47 47 47 49 46 45 43 44 46 44 50 44 48 61 55 59 53 60 56 48 47 44 43 42 42 42
51 50 47 48 47 46 43 45 47 49 47 44 41 43 44 45 43 44 42 44 49 55 58 52 60 62 55 48 47 45 46 44
51 50 48 51 53 49 45 45 48 48 44 45 41 42 43 46 45 43 44 45 44 49 56 52 56 56 51 52 51 49 47 45
52 51 52 53 51 48 47 48 51 45 40 41 41 44 46 44 47 50 47 48 45 45 51 57 55 48 54 58 53 50 47 43
56 57 57 54 52 51 48 49 50 50 45 44 45 48 45 44 49 48 51 50 45 49 42 45 57 58 54 57 58 49 43 41
60 60 57 51 48 50 52 56 53 51 52 51 49 51 48 47 52 49 49 46 42 47 45 37 49 54 46 52 53 49 44 43
66 64 59 52 48 50 57 58 56 56 59 55 55 55 54 52 52 54 52 46 47 46 51 47 45 53 54 52 44 48 47 44
65 63 60 57 51 48 53 57 61 59 61 59 58 58 60 56 56 57 59 53 40 45 50 44 40 49 48 52 49 43 45 41
68 59 53 50 47 47 53 60 64 62 62 60 61 59 62 62 65 62 62 61 57 47 45 45 48 42 49 49 49 44 45 45
54 51 46 51 49 51 52 53 61 58 67 62 66 72 69 67 69 70 66 63 57 57 55 55 46 45 42 56 48 54 38 50
Wind_Direction
297 297 298 299 298 296 294 293 293 291 284 283 282 280 278 275 275 278 277 273 272 273 276 273 272 276 284 291 289 289 290 289
287 289 290 292 293 293 294 296 295 294 292 291 286 282 280 276 272 270 265 262 267 270 272 273 268 266 272 278 284 285 286 291
285 286 288 289 290 288 287 287 290 292 294 292 289 285 280 278 273 269 266 266 267 265 265 267 268 264 261 265 268 277 278 275
274 276 277 277 277 278 283 287 289 290 292 293 293 287 284 279 275 273 273 270 270 272 269 264 266 267 261 256 252 260 259 266
277 274 270 277 284 287 291 293 295 294 290 289 287 282 279 278 273 268 267 266 265 263 265 265 264 264 262 258 256 253 251 252
269 278 286 292 291 289 283 284 284 286 283 282 287 290 285 278 273 273 270 259 261 260 262 263 261 261 259 257 255 252 249 247
273 276 285 288 282 280 283 278 279 279 284 288 287 285 282 275 273 272 268 261 263 263 257 257 258 258 255 253 250 248 244 246
269 276 282 288 283 284 280 278 279 282 282 283 283 284 286 283 276 271 268 263 263 262 261 249 255 254 253 252 249 248 247 244
277 279 284 282 281 281 276 275 280 282 281 281 285 286 286 280 274 268 262 261 259 255 257 258 250 255 253 251 248 247 245 245
278 281 286 286 289 286 281 277 274 272 274 275 279 279 287 285 284 262 258 258 257 253 256 255 243 247 247 247 244 241 243 244
278 276 278 274 274 274 273 273 274 274 275 274 275 278 279 278 281 286 278 250 250 255 252 254 245 241 239 244 244 241 242 243
270 270 268 273 277 272 270 269 269 271 271 269 268 271 279 273 270 280 279 259 268 275 245 236 249 237 237 239 240 239 240 242
273 275 280 283 282 278 272 270 271 270 268 262 261 266 267 271 275 275 277 271 277 276 245 238 239 238 231 231 235 236 238 242
275 281 283 282 278 274 268 263 264 267 259 259 258 263 263 266 271 276 276 277 277 277 269 258 234 248 229 236 232 234 238 240
275 278 278 277 278 278 272 269 269 267 259 257 257 261 260 261 265 272 274 279 279 273 269 257 250 252 233 234 228 229 234 236
275 275 275 274 267 265 260 257 259 262 260 256 258 260 262 260 265 268 274 281 275 278 278 257 250 243 241 236 231 229 226 229
277 279 280 278 263 259 255 255 255 257 258 261 258 258 260 259 262 266 268 269 271 273 263 247 255 255 244 230 227 230 226 230
281 281 281 279 268 261 254 254 256 256 259 263 264 262 262 262 261 260 262 261 273 252 264 274 253 245 228 235 234 218 228 227
286 283 286 276 268 260 257 255 255 257 260 261 263 263 265 269 262 257 258 259 260 266 272 273 264 257 234 234 227 225 223 225
283 274 275 268 264 270 267 255 256 264 262 263 265 260 264 266 260 260 259 260 259 259 273 263 261 264 247 240 228 221 216 227
Height
5837 5837 5836 5835 5835 5834 5834 5834 5834 5833 5832 5832 5831 5830 5829 5828 5825 5824 5826 5825 5823 5824 5826 5827 5828 5828 5828 5828 5828 5828 5828 5827
5832 5832 5831 5831 5830 5830 5829 5828 5828 5827 5826 5827 5827 5825 5823 5821 5819 5818 5816 5815 5817 5819 5820 5822 5823 5822 5823 5823 5823 5823 5824 5823
5827 5827 5826 5826 5826 5825 5824 5823 5822 5821 5820 5819 5818 5817 5815 5813 5811 5812 5813 5812 5811 5811 5812 5815 5817 5818 5816 5817 5816 5818 5819 5818
5820 5820 5820 5820 5819 5818 5817 5816 5815 5814 5813 5812 5810 5809 5806 5804 5803 5803 5807 5809 5808 5808 5807 5807 5809 5811 5812 5811 5810 5811 5812 5813
5817 5817 5817 5816 5814 5812 5811 5809 5808 5807 5804 5802 5799 5797 5795 5794 5792 5793 5795 5799 5801 5800 5801 5801 5803 5804 5806 5807 5806 5806 5806 5806
5810 5809 5809 5808 5805 5804 5804 5802 5800 5799 5796 5793 5792 5791 5789 5785 5782 5783 5786 5788 5791 5793 5794 5794 5794 5797 5798 5800 5801 5801 5801 5800
5803 5803 5802 5801 5799 5796 5795 5796 5792 5789 5787 5786 5784 5780 5776 5773 5773 5774 5774 5775 5779 5783 5785 5786 5786 5788 5790 5792 5794 5795 5795 5793
5794 5795 5793 5791 5789 5785 5785 5784 5783 5780 5775 5774 5773 5770 5768 5763 5764 5765 5766 5766 5769 5773 5774 5776 5778 5780 5782 5784 5785 5787 5788 5787
5789 5785 5783 5779 5775 5774 5773 5771 5769 5767 5766 5765 5764 5761 5756 5754 5750 5751 5753 5754 5757 5759 5762 5767 5768 5771 5774 5775 5777 5778 5779 5780
5776 5774 5771 5768 5764 5762 5762 5761 5760 5758 5757 5755 5753 5751 5749 5744 5742 5739 5740 5742 5745 5748 5752 5753 5756 5759 5762 5767 5769 5769 5770 5771
5764 5760 5758 5754 5752 5752 5752 5750 5748 5743 5744 5744 5741 5740 5740 5736 5730 5723 5722 5729 5732 5732 5733 5739 5744 5747 5749 5755 5759 5760 5761 5762
5752 5748 5744 5742 5740 5740 5738 5735 5734 5732 5731 5731 5730 5728 5730 5727 5723 5721 5719 5714 5723 5725 5711 5722 5729 5733 5735 5741 5747 5750 5751 5753
5736 5732 5730 5727 5725 5724 5723 5723 5722 5720 5721 5720 5720 5719 5719 5717 5713 5711 5713 5714 5719 5715 5710 5709 5715 5719 5721 5725 5733 5737 5741 5744
5724 5721 5718 5715 5712 5711 5711 5712 5710 5709 5708 5705 5705 5706 5706 5706 5704 5701 5703 5705 5707 5703 5702 5702 5697 5707 5710 5714 5719 5725 5729 5735
5707 5705 5702 5700 5699 5696 5696 5695 5694 5694 5695 5692 5692 5691 5691 5691 5691 5689 5688 5690 5693 5690 5689 5689 5693 5696 5700 5704 5708 5713 5720 5724
5693 5689 5686 5682 5681 5681 5679 5677 5678 5679 5681 5680 5679 5677 5677 5677 5679 5676 5677 5678 5683 5678 5678 5679 5683 5688 5686 5694 5698 5704 5708 5711
5670 5667 5666 5664 5663 5664 5664 5663 5663 5662 5663 5665 5665 5665 5662 5662 5664 5663 5664 5667 5667 5673 5669 5670 5671 5675 5678 5684 5687 5693 5698 5703
5649 5647 5646 5646 5645 5644 5644 5644 5643 5645 5645 5647 5649 5649 5648 5648 5649 5650 5650 5653 5656 5655 5654 5658 5660 5662 5667 5673 5674 5683 5689 5695
5630 5630 5629 5627 5626 5625 5626 5627 5627 5628 5629 5630 5632 5634 5634 5632 5631 5635 5636 5640 5643 5640 5641 5647 5650 5652 5655 5658 5663 5671 5678 5682
5609 5610 5613 5610 5610 5609 5608 5607 5609 5611 5612 5612 5613 5615 5616 5614 5616 5616 5619 5622 5628 5633 5633 5635 5638 5639 5643 5650 5654 5662 5663 5671